Regional Weather Roundup
Issued by NWS

Home | Current Version | Previous Version | Text Only | Print | Product List | Glossary Off
Versions: 1 2 3 4 5 6 7 8 9 10 11 12 13 14 15 16 17 18 19 20 21 22 23 24 25 26 27 28

000
ASUS45 KBOI 230310
RWRID

IDAHO REGIONAL WEATHER ROUNDUP
NATIONAL WEATHER SERVICE BOISE ID
900 PM MDT FRI JUL 22 2016

NOTE: "FAIR" INDICATES FEW OR NO CLOUDS BELOW 12000 FEET
WITH NO SIGNIFICANT WEATHER AND/OR OBSTRUCTIONS TO VISIBILITY

IDZ012-014-230400-
SOUTHWEST IDAHO


CITY           SKY/WX    TMP DP  RH WIND       PRES   REMARKS
BOISE          CLEAR     85  29  13 NW10      30.03S
CALDWELL       NOT AVBL
MOUNTAIN HOME  CLEAR     85  38  18 N20G26    30.01R
$$

IDZ016-017-230400-
SOUTHCENTRAL IDAHO


CITY           SKY/WX    TMP DP  RH WIND       PRES   REMARKS
BURLEY         CLEAR     73  39  29 W10       30.07S
JEROME         CLEAR     75  38  26 W7        30.09R
TWIN FALLS     CLEAR     76  36  23 W10       30.10R
$$

IDZ019>023-230400-
SOUTHEAST IDAHO


CITY           SKY/WX    TMP DP  RH WIND       PRES   REMARKS
IDAHO FALLS    CLEAR     78  25  14 SW14      30.07R
POCATELLO      PTCLDY    78  32  18 SW15      30.08S
REXBURG        CLEAR     79  25  13 SW16      30.05F
$$

IDZ006-010-011-018-031-032-230400-
CENTRAL IDAHO MOUNTAINS


CITY           SKY/WX    TMP DP  RH WIND       PRES   REMARKS
MCCALL         CLEAR     70  39  32 W3        30.19R
HAILEY         CLEAR     72  28  20 NW8       30.16R
STANLEY          N/A     67  31  26 NW8       30.26R
SALMON         CLEAR     79  37  22 NW17      30.00R
CHALLIS        CLEAR     75  27  17 W12       30.10R
$$

IDZ002-004-006-007-026-230400-
NORTHERN IDAHO


CITY           SKY/WX    TMP DP  RH WIND       PRES   REMARKS
LEWISTON       CLEAR     78  46  32 W13       30.09R
LOWELL           N/A     70  56  61 CALM      30.10R
COEUR D`ALENE  PTCLDY    63  55  77 W3        30.11R
MULLAN PASS    CLOUDY    47  47 100 VRB7      30.23S FOG
$$




USA.gov is the U.S. government's official web portal to all federal, state and local government web resources and services.